Time,TemperatureF,DewpointF,PressureIn,WindDirection,WindDirectionDegrees,WindSpeedMPH,WindSpeedGustMPH,Humidity,HourlyPrecipIn,Conditions,Clouds,dailyrainin,SoftwareType,DateUTC
2013-10-16 00:02:00,36.3,18.0,30.11,ENE,60,2.7,3.6,47,0.00,,OVC033,0.00,VWS V13.01,2013-10-16 06:02:00,
2013-10-16 00:07:00,36.3,18.0,30.11,East,96,3.6,4.9,47,0.00,,OVC033,0.00,VWS V13.01,2013-10-16 06:07:00,
2013-10-16 00:12:00,36.3,18.0,30.08,ESE,111,0.0,4.9,47,0.00,,OVC033,0.00,VWS V13.01,2013-10-16 06:12:00,
2013-10-16 00:17:00,36.1,17.9,30.08,ESE,111,2.7,2.7,47,0.00,,OVC033,0.00,VWS V13.01,2013-10-16 06:17:00,
2013-10-16 00:22:00,36.1,17.9,30.08,ESE,111,0.0,3.1,47,0.00,,OVC033,0.00,VWS V13.01,2013-10-16 06:22:00,
2013-10-16 00:27:00,36.1,18.4,30.08,ESE,111,0.0,3.1,48,0.00,,OVC033,0.00,VWS V13.01,2013-10-16 06:27:00,
2013-10-16 00:32:00,36.1,18.4,30.08,ESE,111,0.0,0.0,48,0.00,,OVC033,0.00,VWS V13.01,2013-10-16 06:32:00,
2013-10-16 00:37:00,36.1,18.4,30.08,ESE,111,0.0,0.0,48,0.00,,OVC033,0.00,VWS V13.01,2013-10-16 06:37:00,
2013-10-16 00:42:00,36.1,18.8,30.08,ESE,118,0.0,0.0,49,0.00,,OVC033,0.00,VWS V13.01,2013-10-16 06:42:00,
2013-10-16 00:47:00,36.1,18.8,30.08,SE,129,3.1,3.1,49,0.00,,OVC033,0.00,VWS V13.01,2013-10-16 06:47:00,
2013-10-16 00:53:00,36.0,18.7,30.08,SE,129,0.0,3.1,49,0.00,,OVC033,0.00,VWS V13.01,2013-10-16 06:53:00,
2013-10-16 00:58:00,36.0,18.7,30.08,SE,129,0.0,3.1,49,0.00,,OVC033,0.00,VWS V13.01,2013-10-16 06:58:00,
2013-10-16 01:03:00,36.0,19.1,30.08,SE,129,0.0,0.0,50,0.00,,OVC080,0.00,VWS V13.01,2013-10-16 07:03:00,
2013-10-16 01:08:00,36.0,19.1,30.08,SE,129,0.0,0.0,50,0.00,,OVC080,0.00,VWS V13.01,2013-10-16 07:08:00,
2013-10-16 01:13:00,35.8,19.0,30.08,SE,129,0.0,0.0,50,0.00,,OVC080,0.00,VWS V13.01,2013-10-16 07:13:00,
2013-10-16 01:18:00,35.8,19.0,30.08,SE,139,0.0,3.6,50,0.00,,OVC080,0.00,VWS V13.01,2013-10-16 07:18:00,
2013-10-16 01:23:00,35.8,19.0,30.08,SE,141,0.0,3.6,50,0.00,,OVC080,0.00,VWS V13.01,2013-10-16 07:23:00,
2013-10-16 01:28:00,35.8,19.0,30.08,SE,126,0.0,3.6,50,0.00,,OVC080,0.00,VWS V13.01,2013-10-16 07:28:00,
2013-10-16 01:33:00,35.8,19.0,30.08,SE,127,0.0,0.0,50,0.00,,OVC080,0.00,VWS V13.01,2013-10-16 07:33:00,
2013-10-16 01:38:00,35.6,19.3,30.08,SE,127,0.0,0.0,51,0.00,,OVC080,0.00,VWS V13.01,2013-10-16 07:38:00,
2013-10-16 01:43:00,35.4,19.1,30.08,SE,127,0.0,0.0,51,0.00,,OVC080,0.00,VWS V13.01,2013-10-16 07:43:00,
2013-10-16 01:48:00,35.2,18.9,30.08,SE,126,0.0,0.0,51,0.00,,OVC080,0.00,VWS V13.01,2013-10-16 07:48:00,
2013-10-16 01:53:00,35.1,19.2,30.08,SE,126,2.2,2.2,52,0.00,,OVC080,0.00,VWS V13.01,2013-10-16 07:53:00,
2013-10-16 01:58:00,34.9,19.1,30.08,SE,127,2.2,2.2,52,0.00,,OVC080,0.00,VWS V13.01,2013-10-16 07:58:00,
2013-10-16 02:03:00,34.5,18.7,30.08,SE,126,0.0,2.7,52,0.00,,CLR,0.00,VWS V13.01,2013-10-16 08:03:00,
2013-10-16 02:08:00,34.5,19.2,30.08,SE,126,0.0,2.7,53,0.00,,CLR,0.00,VWS V13.01,2013-10-16 08:08:00,
2013-10-16 02:13:00,34.5,19.2,30.08,SE,127,2.2,2.7,53,0.00,,CLR,0.00,VWS V13.01,2013-10-16 08:13:00,
2013-10-16 02:18:00,34.3,19.0,30.08,SE,127,0.0,0.0,53,0.00,,CLR,0.00,VWS V13.01,2013-10-16 08:18:00,
2013-10-16 02:23:00,34.3,19.0,30.08,SE,127,0.0,0.0,53,0.00,,CLR,0.00,VWS V13.01,2013-10-16 08:23:00,
2013-10-16 02:28:00,34.2,19.3,30.05,SE,127,0.0,0.0,54,0.00,,CLR,0.00,VWS V13.01,2013-10-16 08:28:00,
2013-10-16 02:33:00,33.8,18.9,30.05,SE,126,0.0,3.6,54,0.00,,CLR,0.00,VWS V13.01,2013-10-16 08:33:00,
2013-10-16 02:38:00,33.8,18.9,30.05,SE,127,2.7,3.6,54,0.00,,CLR,0.00,VWS V13.01,2013-10-16 08:38:00,
2013-10-16 02:43:00,33.6,19.2,30.05,SE,127,0.0,3.6,55,0.00,,CLR,0.00,VWS V13.01,2013-10-16 08:43:00,
2013-10-16 02:48:00,33.6,19.2,30.05,SE,126,0.0,0.0,55,0.00,,CLR,0.00,VWS V13.01,2013-10-16 08:48:00,
2013-10-16 02:53:00,33.4,19.4,30.05,SE,127,0.0,2.2,56,0.00,,CLR,0.00,VWS V13.01,2013-10-16 08:53:00,
2013-10-16 02:58:00,33.3,19.3,30.05,SE,127,0.0,2.2,56,0.00,,CLR,0.00,VWS V13.01,2013-10-16 08:58:00,
2013-10-16 03:03:00,33.3,19.3,30.05,SE,126,0.0,0.0,56,0.00,,FEW150,0.00,VWS V13.01,2013-10-16 09:03:00,
2013-10-16 03:08:00,33.1,19.1,30.05,SE,127,0.0,0.0,56,0.00,,FEW150,0.00,VWS V13.01,2013-10-16 09:08:00,
2013-10-16 03:13:00,32.9,18.9,30.02,SE,126,0.0,0.0,56,0.00,,FEW150,0.00,VWS V13.01,2013-10-16 09:13:00,
2013-10-16 03:18:00,32.7,18.8,30.02,SE,127,0.0,3.1,56,0.00,,FEW150,0.00,VWS V13.01,2013-10-16 09:18:00,
2013-10-16 03:23:00,32.5,19.0,30.02,SE,126,0.0,3.1,57,0.00,,FEW150,0.00,VWS V13.01,2013-10-16 09:23:00,
2013-10-16 03:28:00,32.5,19.0,30.02,SE,127,0.0,3.1,57,0.00,,FEW150,0.00,VWS V13.01,2013-10-16 09:28:00,
2013-10-16 03:33:00,32.5,19.0,30.02,SE,126,0.0,0.0,57,0.00,,FEW150,0.00,VWS V13.01,2013-10-16 09:33:00,
2013-10-16 03:38:00,32.4,18.8,30.02,SE,127,0.0,0.0,57,0.00,,FEW150,0.00,VWS V13.01,2013-10-16 09:38:00,
2013-10-16 03:43:00,32.2,19.1,30.02,SE,126,0.0,0.0,58,0.00,,FEW150,0.00,VWS V13.01,2013-10-16 09:43:00,
2013-10-16 03:48:00,31.8,18.7,30.02,SE,127,0.0,0.0,58,0.00,,FEW150,0.00,VWS V13.01,2013-10-16 09:48:00,
2013-10-16 03:53:00,31.8,18.7,30.02,SE,126,0.0,0.0,58,0.00,,FEW150,0.00,VWS V13.01,2013-10-16 09:53:00,
2013-10-16 03:58:00,31.6,18.6,30.02,SE,126,0.0,0.0,58,0.00,,FEW150,0.00,VWS V13.01,2013-10-16 09:58:00,
2013-10-16 04:03:00,31.5,18.4,30.02,SE,127,0.0,0.0,58,0.00,,CLR,0.00,VWS V13.01,2013-10-16 10:03:00,
2013-10-16 04:08:00,31.1,18.5,30.02,SE,127,0.0,0.0,59,0.00,,CLR,0.00,VWS V13.01,2013-10-16 10:08:00,
2013-10-16 04:13:00,30.9,18.3,30.02,SE,127,0.0,0.0,59,0.00,,CLR,0.00,VWS V13.01,2013-10-16 10:13:00,
2013-10-16 04:18:00,30.7,18.1,30.02,SE,127,0.0,0.0,59,0.00,,CLR,0.00,VWS V13.01,2013-10-16 10:18:00,
2013-10-16 04:23:00,30.4,17.8,30.02,SE,127,0.0,0.0,59,0.00,,CLR,0.00,VWS V13.01,2013-10-16 10:23:00,
2013-10-16 04:28:00,30.2,18.0,30.02,SE,127,0.0,0.0,60,0.00,,CLR,0.00,VWS V13.01,2013-10-16 10:28:00,
2013-10-16 04:33:00,30.0,17.8,30.02,SE,126,0.0,0.0,60,0.00,,CLR,0.00,VWS V13.01,2013-10-16 10:33:00,
2013-10-16 04:39:00,30.2,18.4,30.02,SE,127,0.0,0.0,61,0.00,,CLR,0.00,VWS V13.01,2013-10-16 10:39:00,
2013-10-16 04:44:00,29.8,18.0,30.02,SE,127,0.0,0.0,61,0.00,,CLR,0.00,VWS V13.01,2013-10-16 10:44:00,
2013-10-16 04:49:00,29.8,18.0,30.02,SE,126,0.0,0.0,61,0.00,,CLR,0.00,VWS V13.01,2013-10-16 10:49:00,
2013-10-16 04:54:00,29.7,18.2,30.02,SE,126,0.0,0.0,62,0.00,,CLR,0.00,VWS V13.01,2013-10-16 10:54:00,
2013-10-16 04:59:00,29.5,18.1,30.02,SE,127,0.0,0.0,62,0.00,,CLR,0.00,VWS V13.01,2013-10-16 10:59:00,
2013-10-16 05:04:00,29.5,18.1,30.02,SE,127,0.0,0.0,62,0.00,,CLR,0.00,VWS V13.01,2013-10-16 11:04:00,
2013-10-16 05:09:00,29.3,18.3,30.02,SE,127,0.0,0.0,63,0.00,,CLR,0.00,VWS V13.01,2013-10-16 11:09:00,
2013-10-16 05:14:00,29.1,18.1,30.02,SE,126,0.0,0.0,63,0.00,,CLR,0.00,VWS V13.01,2013-10-16 11:14:00,
2013-10-16 05:19:00,28.9,17.9,30.02,SE,126,0.0,0.0,63,0.00,,CLR,0.00,VWS V13.01,2013-10-16 11:19:00,
2013-10-16 05:24:00,28.9,18.3,30.02,SE,127,0.0,0.0,64,0.00,,CLR,0.00,VWS V13.01,2013-10-16 11:24:00,
2013-10-16 05:29:00,29.1,18.5,30.02,SE,126,0.0,0.0,64,0.00,,CLR,0.00,VWS V13.01,2013-10-16 11:29:00,
2013-10-16 05:34:00,29.1,18.8,30.02,SE,127,0.0,0.0,65,0.00,,CLR,0.00,VWS V13.01,2013-10-16 11:34:00,
2013-10-16 05:39:00,28.9,18.7,30.02,SE,126,0.0,0.0,65,0.00,,CLR,0.00,VWS V13.01,2013-10-16 11:39:00,
2013-10-16 05:44:00,28.9,18.7,30.02,SE,127,0.0,0.0,65,0.00,,CLR,0.00,VWS V13.01,2013-10-16 11:44:00,
2013-10-16 05:49:00,28.9,19.0,30.02,SE,127,0.0,0.0,66,0.00,,CLR,0.00,VWS V13.01,2013-10-16 11:49:00,
2013-10-16 05:54:00,28.9,19.0,30.02,SE,127,0.0,0.0,66,0.00,,CLR,0.00,VWS V13.01,2013-10-16 11:54:00,
2013-10-16 05:59:00,28.8,19.2,30.02,SE,127,0.0,0.0,67,0.00,,CLR,0.00,VWS V13.01,2013-10-16 11:59:00,
2013-10-16 06:04:00,28.8,19.2,30.02,SE,126,0.0,0.0,67,0.00,,CLR,0.00,VWS V13.01,2013-10-16 12:04:00,
2013-10-16 06:09:00,28.6,19.0,30.02,SE,127,0.0,0.0,67,0.00,,CLR,0.00,VWS V13.01,2013-10-16 12:09:00,
2013-10-16 06:14:00,28.4,18.9,30.02,SE,126,0.0,0.0,67,0.00,,CLR,0.00,VWS V13.01,2013-10-16 12:14:00,
2013-10-16 06:19:00,28.4,19.2,30.02,SE,127,0.0,0.0,68,0.00,,CLR,0.00,VWS V13.01,2013-10-16 12:19:00,
2013-10-16 06:24:00,28.2,19.0,30.02,SE,126,0.0,0.0,68,0.00,,CLR,0.00,VWS V13.01,2013-10-16 12:24:00,
2013-10-16 06:29:00,28.0,18.9,30.02,SE,126,0.0,0.0,68,0.00,,CLR,0.00,VWS V13.01,2013-10-16 12:29:00,
2013-10-16 06:34:00,27.9,18.7,30.02,SE,126,0.0,0.0,68,0.00,,CLR,0.00,VWS V13.01,2013-10-16 12:34:00,
2013-10-16 06:39:00,27.9,19.0,30.02,SE,127,0.0,0.0,69,0.00,,CLR,0.00,VWS V13.01,2013-10-16 12:39:00,
2013-10-16 06:44:00,27.9,19.0,30.02,SE,126,0.0,0.0,69,0.00,,CLR,0.00,VWS V13.01,2013-10-16 12:44:00,
2013-10-16 06:49:00,27.9,19.0,30.02,SE,127,0.0,0.0,69,0.00,,CLR,0.00,VWS V13.01,2013-10-16 12:49:00,
2013-10-16 06:54:00,27.9,19.4,30.02,SE,126,0.0,0.0,70,0.00,,CLR,0.00,VWS V13.01,2013-10-16 12:54:00,
2013-10-16 06:59:00,27.9,19.4,30.02,SE,126,0.0,0.0,70,0.00,,CLR,0.00,VWS V13.01,2013-10-16 12:59:00,
2013-10-16 07:04:00,27.9,19.4,30.02,SE,127,0.0,0.0,70,0.00,,CLR,0.00,VWS V13.01,2013-10-16 13:04:00,
2013-10-16 07:09:00,28.0,19.9,30.02,SE,127,0.0,0.0,71,0.00,,CLR,0.00,VWS V13.01,2013-10-16 13:09:00,
2013-10-16 07:14:00,27.9,19.7,30.02,SE,127,0.0,0.0,71,0.00,,CLR,0.00,VWS V13.01,2013-10-16 13:14:00,
2013-10-16 07:19:00,27.9,19.7,30.02,SE,127,0.0,0.0,71,0.00,,CLR,0.00,VWS V13.01,2013-10-16 13:19:00,
2013-10-16 07:24:00,27.9,19.7,30.02,SE,126,0.0,0.0,71,0.00,,CLR,0.00,VWS V13.01,2013-10-16 13:24:00,
2013-10-16 07:29:00,27.7,19.5,30.02,SE,126,0.0,0.0,71,0.00,,CLR,0.00,VWS V13.01,2013-10-16 13:29:00,
2013-10-16 07:34:00,27.7,19.5,30.02,SE,126,0.0,0.0,71,0.00,,CLR,0.00,VWS V13.01,2013-10-16 13:34:00,
2013-10-16 07:39:00,27.9,20.0,30.02,SE,127,0.0,0.0,72,0.00,,CLR,0.00,VWS V13.01,2013-10-16 13:39:00,
2013-10-16 07:44:00,28.0,20.2,30.02,SE,127,0.0,0.0,72,0.00,,CLR,0.00,VWS V13.01,2013-10-16 13:44:00,
2013-10-16 07:49:00,28.2,20.7,30.02,SE,126,0.0,0.0,73,0.00,,CLR,0.00,VWS V13.01,2013-10-16 13:49:00,
2013-10-16 07:54:00,28.6,21.0,30.02,SE,127,0.0,0.0,73,0.00,,CLR,0.00,VWS V13.01,2013-10-16 13:54:00,
2013-10-16 07:59:00,28.9,21.4,30.02,SE,126,0.0,0.0,73,0.00,,CLR,0.00,VWS V13.01,2013-10-16 13:59:00,
2013-10-16 08:04:00,29.8,22.6,30.02,SE,126,0.0,0.0,74,0.00,,CLR,0.00,VWS V13.01,2013-10-16 14:04:00,
2013-10-16 08:09:00,30.7,23.5,30.02,SE,127,0.0,0.0,74,0.00,,CLR,0.00,VWS V13.01,2013-10-16 14:09:00,
2013-10-16 08:14:00,31.6,24.3,30.02,SE,126,0.0,0.0,74,0.00,,CLR,0.00,VWS V13.01,2013-10-16 14:14:00,
2013-10-16 08:20:00,32.5,25.5,30.02,SE,127,0.0,0.0,75,0.00,,CLR,0.00,VWS V13.01,2013-10-16 14:20:00,
2013-10-16 08:24:00,33.1,25.7,30.02,SE,126,0.0,0.0,74,0.00,,CLR,0.00,VWS V13.01,2013-10-16 14:24:00,
2013-10-16 08:29:00,33.8,26.4,30.02,SE,127,0.0,0.0,74,0.00,,CLR,0.00,VWS V13.01,2013-10-16 14:29:00,
2013-10-16 08:34:00,34.7,27.6,30.02,SE,126,0.0,0.0,75,0.00,,CLR,0.00,VWS V13.01,2013-10-16 14:34:00,
2013-10-16 08:39:00,35.4,28.0,30.02,SE,126,0.0,0.0,74,0.00,,CLR,0.00,VWS V13.01,2013-10-16 14:39:00,
2013-10-16 08:44:00,35.4,28.0,30.02,WSW,238,3.6,3.6,74,0.00,,CLR,0.00,VWS V13.01,2013-10-16 14:44:00,
2013-10-16 08:49:00,35.2,26.8,30.02,WNW,294,2.7,3.1,71,0.00,,CLR,0.00,VWS V13.01,2013-10-16 14:49:00,
2013-10-16 08:54:00,35.2,26.1,30.02,WSW,246,0.0,4.0,69,0.00,,CLR,0.00,VWS V13.01,2013-10-16 14:54:00,
2013-10-16 09:00:00,35.6,26.1,30.02,WSW,246,0.0,4.0,68,0.00,,CLR,0.00,VWS V13.01,2013-10-16 15:00:00,
2013-10-16 09:05:00,36.1,26.6,30.02,SW,224,4.0,4.9,68,0.00,,CLR,0.00,VWS V13.01,2013-10-16 15:05:00,
2013-10-16 09:10:00,36.1,25.5,30.02,SSW,192,0.0,4.9,65,0.00,,CLR,0.00,VWS V13.01,2013-10-16 15:10:00,
2013-10-16 09:15:00,36.5,25.9,30.02,WSW,252,3.1,4.9,65,0.00,,CLR,0.00,VWS V13.01,2013-10-16 15:15:00,
2013-10-16 09:20:00,36.5,23.1,30.02,SW,219,4.0,5.4,58,0.00,,CLR,0.00,VWS V13.01,2013-10-16 15:20:00,
2013-10-16 09:25:00,36.9,23.5,30.02,West,264,2.7,5.4,58,0.00,,CLR,0.00,VWS V13.01,2013-10-16 15:25:00,
2013-10-16 09:30:00,37.6,24.6,30.02,ENE,74,0.0,5.4,59,0.00,,CLR,0.00,VWS V13.01,2013-10-16 15:30:00,
2013-10-16 09:35:00,38.5,25.4,30.02,ENE,69,2.2,4.5,59,0.00,,CLR,0.00,VWS V13.01,2013-10-16 15:35:00,
2013-10-16 09:40:00,38.8,24.5,30.02,SE,125,3.1,4.5,56,0.00,,CLR,0.00,VWS V13.01,2013-10-16 15:40:00,
2013-10-16 09:45:00,39.4,24.6,30.02,SE,136,0.0,4.5,55,0.00,,CLR,0.00,VWS V13.01,2013-10-16 15:45:00,
2013-10-16 09:50:00,39.9,24.2,30.02,East,90,4.0,4.0,53,0.00,,CLR,0.00,VWS V13.01,2013-10-16 15:50:00,
2013-10-16 09:55:00,40.3,23.6,30.02,ESE,108,0.0,4.0,51,0.00,,CLR,0.00,VWS V13.01,2013-10-16 15:55:00,
2013-10-16 10:00:00,40.5,23.3,30.02,SE,146,4.0,4.0,50,0.00,,CLR,0.00,VWS V13.01,2013-10-16 16:00:00,
2013-10-16 10:05:00,40.8,22.7,30.02,WSW,237,3.1,4.0,48,0.00,,CLR,0.00,VWS V13.01,2013-10-16 16:05:00,
2013-10-16 10:10:00,40.6,22.0,30.02,SSW,208,2.2,4.0,47,0.00,,CLR,0.00,VWS V13.01,2013-10-16 16:10:00,
2013-10-16 10:15:00,41.2,21.5,30.02,WNW,283,2.2,5.4,45,0.00,,CLR,0.00,VWS V13.01,2013-10-16 16:15:00,
2013-10-16 10:20:00,41.4,21.1,30.02,South,179,4.0,4.9,44,0.00,,CLR,0.00,VWS V13.01,2013-10-16 16:20:00,
2013-10-16 10:25:00,41.7,21.4,30.02,South,176,2.2,4.9,44,0.00,,CLR,0.00,VWS V13.01,2013-10-16 16:25:00,
2013-10-16 10:30:00,42.3,21.4,30.02,ESE,106,5.8,5.8,43,0.00,,CLR,0.00,VWS V13.01,2013-10-16 16:30:00,
2013-10-16 10:35:00,42.4,21.0,30.02,ESE,111,2.7,6.7,42,0.00,,CLR,0.00,VWS V13.01,2013-10-16 16:35:00,
2013-10-16 10:40:00,42.8,21.3,30.02,ESE,110,3.6,6.7,42,0.00,,CLR,0.00,VWS V13.01,2013-10-16 16:40:00,
2013-10-16 10:45:00,43.2,21.1,30.02,ESE,119,4.0,6.7,41,0.00,,CLR,0.00,VWS V13.01,2013-10-16 16:45:00,
2013-10-16 10:50:00,43.7,21.6,30.02,SW,224,2.2,3.6,41,0.00,,CLR,0.00,VWS V13.01,2013-10-16 16:50:00,
2013-10-16 10:55:00,44.1,21.3,30.02,East,82,4.0,4.0,40,0.00,,CLR,0.00,VWS V13.01,2013-10-16 16:55:00,
2013-10-16 11:00:00,44.8,22.0,29.99,ENE,77,3.6,4.0,40,0.00,,CLR,0.00,VWS V13.01,2013-10-16 17:00:00,
2013-10-16 11:05:00,45.3,21.8,29.99,WSW,238,2.7,2.7,39,0.00,,CLR,0.00,VWS V13.01,2013-10-16 17:05:00,
2013-10-16 11:10:00,45.7,22.2,29.99,ENE,60,2.7,4.0,39,0.00,,CLR,0.00,VWS V13.01,2013-10-16 17:10:00,
2013-10-16 11:15:00,46.4,22.2,29.99,ENE,78,3.6,4.9,38,0.00,,CLR,0.00,VWS V13.01,2013-10-16 17:15:00,
2013-10-16 11:20:00,46.9,22.0,29.99,NE,55,2.7,4.9,37,0.00,,CLR,0.00,VWS V13.01,2013-10-16 17:20:00,
2013-10-16 11:25:00,47.1,22.2,29.99,East,83,3.6,4.9,37,0.00,,CLR,0.00,VWS V13.01,2013-10-16 17:25:00,
2013-10-16 11:30:00,46.8,21.2,29.99,East,81,3.6,5.4,36,0.00,,CLR,0.00,VWS V13.01,2013-10-16 17:30:00,
2013-10-16 11:35:00,46.6,21.1,29.99,East,91,3.1,6.3,36,0.00,,CLR,0.00,VWS V13.01,2013-10-16 17:35:00,
2013-10-16 11:40:00,47.3,21.0,29.99,ENE,77,2.2,6.3,35,0.00,,CLR,0.00,VWS V13.01,2013-10-16 17:40:00,
2013-10-16 11:45:00,47.3,21.0,29.99,ESE,111,2.7,6.3,35,0.00,,CLR,0.00,VWS V13.01,2013-10-16 17:45:00,
2013-10-16 11:50:00,47.7,20.7,29.99,ENE,57,4.0,6.3,34,0.00,,CLR,0.00,VWS V13.01,2013-10-16 17:50:00,
2013-10-16 11:55:00,48.4,20.6,29.99,East,100,2.7,6.3,33,0.00,,CLR,0.00,VWS V13.01,2013-10-16 17:55:00,
2013-10-16 12:00:00,49.3,19.9,29.99,ESE,122,5.4,6.3,31,0.00,,CLR,0.00,VWS V13.01,2013-10-16 18:00:00,
2013-10-16 12:05:00,49.1,19.8,29.99,East,79,3.6,5.8,31,0.00,,CLR,0.00,VWS V13.01,2013-10-16 18:05:00,
2013-10-16 12:10:00,50.2,20.7,29.99,East,85,4.0,5.8,31,0.00,,CLR,0.00,VWS V13.01,2013-10-16 18:10:00,
2013-10-16 12:15:00,50.5,19.5,29.99,WNW,289,3.6,5.8,29,0.00,,CLR,0.00,VWS V13.01,2013-10-16 18:15:00,
2013-10-16 12:20:00,50.0,18.2,29.99,West,268,2.2,4.0,28,0.00,,CLR,0.00,VWS V13.01,2013-10-16 18:20:00,
2013-10-16 12:25:00,50.7,19.6,29.99,NE,45,3.1,4.0,29,0.00,,CLR,0.00,VWS V13.01,2013-10-16 18:25:00,
2013-10-16 12:29:00,51.8,19.8,29.99,NE,55,3.1,4.9,28,0.00,,CLR,0.00,VWS V13.01,2013-10-16 18:29:00,
2013-10-16 12:34:00,52.3,19.4,29.99,ENE,61,4.0,4.0,27,0.00,,CLR,0.00,VWS V13.01,2013-10-16 18:34:00,
2013-10-16 12:39:00,52.5,19.5,29.99,ENE,74,0.0,5.4,27,0.00,,CLR,0.00,VWS V13.01,2013-10-16 18:39:00,
2013-10-16 12:44:00,52.5,18.6,29.99,East,83,2.2,6.3,26,0.00,,CLR,0.00,VWS V13.01,2013-10-16 18:44:00,
2013-10-16 12:49:00,52.3,18.5,29.99,ENE,67,2.2,4.0,26,0.00,,CLR,0.00,VWS V13.01,2013-10-16 18:49:00,
2013-10-16 12:54:00,51.8,18.0,29.99,West,260,0.0,4.0,26,0.00,,CLR,0.00,VWS V13.01,2013-10-16 18:54:00,
2013-10-16 12:59:00,51.8,18.0,29.96,East,91,0.0,4.9,26,0.00,,CLR,0.00,VWS V13.01,2013-10-16 18:59:00,
2013-10-16 13:04:00,52.2,18.3,29.96,East,87,3.6,6.3,26,0.00,,CLR,0.00,VWS V13.01,2013-10-16 19:04:00,
2013-10-16 13:09:00,52.2,18.3,29.96,East,90,2.7,6.3,26,0.00,,CLR,0.00,VWS V13.01,2013-10-16 19:09:00,
2013-10-16 13:14:00,52.3,15.7,29.96,ENE,59,3.1,6.3,23,0.00,,CLR,0.00,VWS V13.01,2013-10-16 19:14:00,
2013-10-16 13:19:00,52.5,15.8,29.96,ESE,117,5.4,6.7,23,0.00,,CLR,0.00,VWS V13.01,2013-10-16 19:19:00,
2013-10-16 13:24:00,52.3,15.7,29.96,WSW,237,2.2,6.7,23,0.00,,CLR,0.00,VWS V13.01,2013-10-16 19:24:00,
2013-10-16 13:29:00,53.6,18.6,29.96,NE,36,0.0,6.7,25,0.00,,CLR,0.00,VWS V13.01,2013-10-16 19:29:00,
2013-10-16 13:34:00,55.0,19.9,29.96,NE,47,2.2,3.6,25,0.00,,CLR,0.00,VWS V13.01,2013-10-16 19:34:00,
2013-10-16 13:39:00,55.8,17.5,29.96,North,357,0.0,3.6,22,0.00,,CLR,0.00,VWS V13.01,2013-10-16 19:39:00,
2013-10-16 13:44:00,55.0,14.7,29.96,East,101,5.4,6.3,20,0.00,,CLR,0.00,VWS V13.01,2013-10-16 19:44:00,
2013-10-16 13:49:00,54.9,14.6,29.96,ENE,62,4.0,5.4,20,0.00,,CLR,0.00,VWS V13.01,2013-10-16 19:49:00,
2013-10-16 13:54:00,54.5,14.3,29.96,West,268,4.0,5.4,20,0.00,,CLR,0.00,VWS V13.01,2013-10-16 19:54:00,
2013-10-16 13:59:00,54.0,13.8,29.96,East,79,5.8,5.8,20,0.00,,CLR,0.00,VWS V13.01,2013-10-16 19:59:00,
2013-10-16 14:04:00,54.5,14.3,29.96,NW,306,3.1,4.0,20,0.00,,CLR,0.00,VWS V13.01,2013-10-16 20:04:00,
2013-10-16 14:09:00,55.2,12.5,29.96,ENE,58,3.6,5.8,18,0.00,,CLR,0.00,VWS V13.01,2013-10-16 20:09:00,
2013-10-16 14:14:00,55.0,12.3,29.96,North,2,4.9,5.8,18,0.00,,CLR,0.00,VWS V13.01,2013-10-16 20:14:00,
2013-10-16 14:19:00,54.9,12.2,29.96,ESE,111,2.2,5.8,18,0.00,,CLR,0.00,VWS V13.01,2013-10-16 20:19:00,
2013-10-16 14:24:00,55.2,12.5,29.96,WNW,287,4.0,5.8,18,0.00,,CLR,0.00,VWS V13.01,2013-10-16 20:24:00,
2013-10-16 14:29:00,55.4,11.3,29.96,NE,53,4.9,6.3,17,0.00,,CLR,0.00,VWS V13.01,2013-10-16 20:29:00,
2013-10-16 14:34:00,55.4,11.3,29.96,ENE,63,2.7,5.4,17,0.00,,CLR,0.00,VWS V13.01,2013-10-16 20:34:00,
2013-10-16 14:39:00,55.4,11.3,29.96,NNW,336,5.4,6.3,17,0.00,,CLR,0.00,VWS V13.01,2013-10-16 20:39:00,
2013-10-16 14:44:00,55.8,11.6,29.96,East,99,2.7,6.3,17,0.00,,CLR,0.00,VWS V13.01,2013-10-16 20:44:00,
2013-10-16 14:49:00,55.6,11.5,29.96,East,97,3.6,5.4,17,0.00,,CLR,0.00,VWS V13.01,2013-10-16 20:49:00,
2013-10-16 14:54:00,55.8,11.6,29.96,NE,43,2.2,5.4,17,0.00,,CLR,0.00,VWS V13.01,2013-10-16 20:54:00,
2013-10-16 14:59:00,55.9,11.8,29.96,NNE,28,0.0,5.4,17,0.00,,CLR,0.00,VWS V13.01,2013-10-16 20:59:00,
2013-10-16 15:04:00,56.1,11.9,29.96,East,81,2.2,6.3,17,0.00,,CLR,0.00,VWS V13.01,2013-10-16 21:04:00,
2013-10-16 15:09:00,56.1,11.9,29.96,NE,53,4.0,6.3,17,0.00,,CLR,0.00,VWS V13.01,2013-10-16 21:09:00,
2013-10-16 15:14:00,55.4,11.3,29.96,NE,37,0.0,6.3,17,0.00,,CLR,0.00,VWS V13.01,2013-10-16 21:14:00,
2013-10-16 15:19:00,54.7,12.0,29.96,NE,45,2.7,3.6,18,0.00,,CLR,0.00,VWS V13.01,2013-10-16 21:19:00,
2013-10-16 15:24:00,54.5,11.9,29.96,ENE,70,3.6,4.0,18,0.00,,CLR,0.00,VWS V13.01,2013-10-16 21:24:00,
2013-10-16 15:29:00,55.0,12.3,29.96,North,3,0.0,5.4,18,0.00,,CLR,0.00,VWS V13.01,2013-10-16 21:29:00,
2013-10-16 15:34:00,55.9,11.8,29.96,NNE,20,0.0,3.6,17,0.00,,CLR,0.00,VWS V13.01,2013-10-16 21:34:00,
2013-10-16 15:39:00,56.3,12.1,29.96,NNE,27,0.0,4.0,17,0.00,,CLR,0.00,VWS V13.01,2013-10-16 21:39:00,
2013-10-16 15:44:00,56.7,12.4,29.96,NNE,21,4.0,4.0,17,0.00,,CLR,0.00,VWS V13.01,2013-10-16 21:44:00,
2013-10-16 15:49:00,56.7,12.4,29.96,NE,44,2.2,4.0,17,0.00,,CLR,0.00,VWS V13.01,2013-10-16 21:49:00,
2013-10-16 15:54:00,55.9,11.8,29.96,West,275,3.6,5.4,17,0.00,,CLR,0.00,VWS V13.01,2013-10-16 21:54:00,
2013-10-16 16:00:00,55.9,11.8,29.96,NE,37,2.2,6.3,17,0.00,,CLR,0.00,VWS V13.01,2013-10-16 22:00:00,
2013-10-16 16:05:00,56.1,11.9,29.96,NW,308,2.7,4.0,17,0.00,,CLR,0.00,VWS V13.01,2013-10-16 22:05:00,
2013-10-16 16:10:00,56.1,11.9,29.96,North,357,0.0,4.0,17,0.00,,CLR,0.00,VWS V13.01,2013-10-16 22:10:00,
2013-10-16 16:15:00,56.1,11.9,29.96,ENE,71,3.1,5.8,17,0.00,,CLR,0.00,VWS V13.01,2013-10-16 22:15:00,
2013-10-16 16:20:00,55.4,8.5,29.96,ENE,63,3.6,4.9,15,0.00,,CLR,0.00,VWS V13.01,2013-10-16 22:20:00,
2013-10-16 16:25:00,54.9,8.1,29.96,ESE,123,2.2,4.9,15,0.00,,CLR,0.00,VWS V13.01,2013-10-16 22:25:00,
2013-10-16 16:30:00,55.0,8.2,29.96,North,357,2.2,4.9,15,0.00,,CLR,0.00,VWS V13.01,2013-10-16 22:30:00,
2013-10-16 16:35:00,55.0,8.2,29.96,ENE,70,0.0,5.4,15,0.00,,CLR,0.00,VWS V13.01,2013-10-16 22:35:00,
2013-10-16 16:40:00,55.4,8.5,29.96,ENE,62,3.1,5.4,15,0.00,,CLR,0.00,VWS V13.01,2013-10-16 22:40:00,
2013-10-16 16:45:00,55.2,12.5,29.96,ENE,77,4.0,5.4,18,0.00,,CLR,0.00,VWS V13.01,2013-10-16 22:45:00,
2013-10-16 16:50:00,55.4,8.5,29.96,WSW,254,0.0,4.0,15,0.00,,CLR,0.00,VWS V13.01,2013-10-16 22:50:00,
2013-10-16 16:55:00,55.4,11.3,29.96,ENE,62,2.7,4.0,17,0.00,,CLR,0.00,VWS V13.01,2013-10-16 22:55:00,
2013-10-16 17:00:00,55.4,11.3,29.96,NW,305,0.0,4.0,17,0.00,,CLR,0.00,VWS V13.01,2013-10-16 23:00:00,
2013-10-16 17:05:00,55.9,11.8,29.96,NE,49,0.0,2.7,17,0.00,,CLR,0.00,VWS V13.01,2013-10-16 23:05:00,
2013-10-16 17:10:00,55.8,8.8,29.96,East,89,2.2,4.9,15,0.00,,CLR,0.00,VWS V13.01,2013-10-16 23:10:00,
2013-10-16 17:15:00,55.0,8.2,29.96,NE,52,2.7,4.9,15,0.00,,CLR,0.00,VWS V13.01,2013-10-16 23:15:00,
2013-10-16 17:20:00,54.9,8.1,29.96,NE,42,0.0,4.5,15,0.00,,CLR,0.00,VWS V13.01,2013-10-16 23:20:00,
2013-10-16 17:25:00,54.7,8.0,29.96,ENE,60,3.1,4.5,15,0.00,,CLR,0.00,VWS V13.01,2013-10-16 23:25:00,
2013-10-16 17:30:00,54.1,7.5,29.96,ENE,76,2.7,4.9,15,0.00,,CLR,0.00,VWS V13.01,2013-10-16 23:30:00,
2013-10-16 17:35:00,53.8,11.3,29.96,NE,34,3.6,4.0,18,0.00,,CLR,0.00,VWS V13.01,2013-10-16 23:35:00,
2013-10-16 17:40:00,53.6,11.1,29.96,ENE,62,2.7,4.0,18,0.00,,CLR,0.00,VWS V13.01,2013-10-16 23:40:00,
2013-10-16 17:45:00,53.1,10.7,29.96,East,86,3.1,4.0,18,0.00,,CLR,0.00,VWS V13.01,2013-10-16 23:45:00,
2013-10-16 17:50:00,52.5,10.2,29.96,NE,45,0.0,5.4,18,0.00,,CLR,0.00,VWS V13.01,2013-10-16 23:50:00,
2013-10-16 17:55:00,52.2,10.0,29.96,NE,45,0.0,5.4,18,0.00,,CLR,0.00,VWS V13.01,2013-10-16 23:55:00,
2013-10-16 18:00:00,51.8,9.7,29.96,NE,46,0.0,5.4,18,0.00,,CLR,0.00,VWS V13.01,2013-10-17 00:00:00,
2013-10-16 18:05:00,51.3,10.4,29.96,ENE,68,0.0,3.6,19,0.00,,CLR,0.00,VWS V13.01,2013-10-17 00:05:00,
2013-10-16 18:10:00,50.7,10.0,29.96,ENE,68,0.0,3.6,19,0.00,,CLR,0.00,VWS V13.01,2013-10-17 00:10:00,
2013-10-16 18:15:00,50.2,9.5,29.96,ENE,68,0.0,3.6,19,0.00,,CLR,0.00,VWS V13.01,2013-10-17 00:15:00,
2013-10-16 18:20:00,49.6,9.1,29.96,ENE,68,0.0,0.0,19,0.00,,CLR,0.00,VWS V13.01,2013-10-17 00:20:00,
2013-10-16 18:25:00,49.3,8.8,29.96,ESE,109,0.0,4.0,19,0.00,,CLR,0.00,VWS V13.01,2013-10-17 00:25:00,
2013-10-16 18:30:00,48.9,10.7,29.96,ESE,109,0.0,4.0,21,0.00,,CLR,0.00,VWS V13.01,2013-10-17 00:30:00,
2013-10-16 18:35:00,48.4,10.3,29.96,ESE,109,0.0,0.0,21,0.00,,CLR,0.00,VWS V13.01,2013-10-17 00:35:00,
2013-10-16 18:40:00,47.8,10.9,29.96,ESE,109,0.0,0.0,22,0.00,,CLR,0.00,VWS V13.01,2013-10-17 00:40:00,
2013-10-16 18:45:00,47.1,12.2,29.96,ESE,109,0.0,0.0,24,0.00,,CLR,0.00,VWS V13.01,2013-10-17 00:45:00,
2013-10-16 18:50:00,46.6,11.7,29.96,ESE,109,0.0,0.0,24,0.00,,CLR,0.00,VWS V13.01,2013-10-17 00:50:00,
2013-10-16 18:55:00,46.0,13.9,29.96,ESE,109,0.0,0.0,27,0.00,,CLR,0.00,VWS V13.01,2013-10-17 00:55:00,
2013-10-16 19:00:00,45.3,14.1,29.96,ESE,109,0.0,0.0,28,0.00,,CLR,0.00,VWS V13.01,2013-10-17 01:00:00,
2013-10-16 19:05:00,44.6,13.5,29.96,ESE,109,0.0,0.0,28,0.00,,CLR,0.00,VWS V13.01,2013-10-17 01:05:00,
2013-10-16 19:10:00,44.1,13.9,29.96,ESE,109,0.0,0.0,29,0.00,,CLR,0.00,VWS V13.01,2013-10-17 01:10:00,
2013-10-16 19:15:00,43.5,14.2,29.96,ESE,109,0.0,0.0,30,0.00,,CLR,0.00,VWS V13.01,2013-10-17 01:15:00,
2013-10-16 19:20:00,43.0,14.4,29.96,ESE,109,0.0,0.0,31,0.00,,CLR,0.00,VWS V13.01,2013-10-17 01:20:00,
2013-10-16 19:25:00,42.4,15.4,29.96,ESE,109,0.0,0.0,33,0.00,,CLR,0.00,VWS V13.01,2013-10-17 01:25:00,
2013-10-16 19:30:00,42.1,16.4,29.96,ESE,109,0.0,0.0,35,0.00,,CLR,0.00,VWS V13.01,2013-10-17 01:30:00,
2013-10-16 19:35:00,41.7,16.8,29.96,ESE,109,0.0,0.0,36,0.00,,CLR,0.00,VWS V13.01,2013-10-17 01:35:00,
2013-10-16 19:40:00,41.5,17.8,29.96,ESE,109,0.0,0.0,38,0.00,,CLR,0.00,VWS V13.01,2013-10-17 01:40:00,
2013-10-16 19:45:00,41.2,17.5,29.96,ESE,109,0.0,0.0,38,0.00,,CLR,0.00,VWS V13.01,2013-10-17 01:45:00,
2013-10-16 19:50:00,41.2,18.1,29.96,ESE,109,0.0,0.0,39,0.00,,CLR,0.00,VWS V13.01,2013-10-17 01:50:00,
2013-10-16 19:55:00,41.2,18.1,29.96,ESE,109,0.0,0.0,39,0.00,,CLR,0.00,VWS V13.01,2013-10-17 01:55:00,
2013-10-16 20:00:00,40.8,17.8,29.96,ESE,109,0.0,0.0,39,0.00,,CLR,0.00,VWS V13.01,2013-10-17 02:00:00,
2013-10-16 20:05:00,40.6,18.2,29.96,ESE,109,0.0,0.0,40,0.00,,CLR,0.00,VWS V13.01,2013-10-17 02:05:00,
2013-10-16 20:10:00,40.5,18.1,29.96,ESE,109,0.0,0.0,40,0.00,,CLR,0.00,VWS V13.01,2013-10-17 02:10:00,
2013-10-16 20:15:00,40.1,17.7,29.99,ESE,109,0.0,0.0,40,0.00,,CLR,0.00,VWS V13.01,2013-10-17 02:15:00,
2013-10-16 20:20:00,39.6,17.8,29.99,ESE,109,0.0,0.0,41,0.00,,CLR,0.00,VWS V13.01,2013-10-17 02:20:00,
2013-10-16 20:25:00,39.2,17.5,29.99,ESE,109,0.0,0.0,41,0.00,,CLR,0.00,VWS V13.01,2013-10-17 02:25:00,
2013-10-16 20:30:00,39.0,17.9,29.99,ESE,109,0.0,0.0,42,0.00,,CLR,0.00,VWS V13.01,2013-10-17 02:30:00,
2013-10-16 20:35:00,38.7,18.1,29.99,ESE,109,0.0,0.0,43,0.00,,CLR,0.00,VWS V13.01,2013-10-17 02:35:00,
2013-10-16 20:40:00,38.3,17.8,29.99,ESE,109,0.0,0.0,43,0.00,,CLR,0.00,VWS V13.01,2013-10-17 02:40:00,
2013-10-16 20:45:00,37.9,17.5,29.99,ESE,109,0.0,0.0,43,0.00,,CLR,0.00,VWS V13.01,2013-10-17 02:45:00,
2013-10-16 20:50:00,37.6,18.2,29.99,ESE,109,0.0,0.0,45,0.00,,CLR,0.00,VWS V13.01,2013-10-17 02:50:00,
2013-10-16 20:55:00,37.4,18.0,29.99,ESE,109,0.0,0.0,45,0.00,,CLR,0.00,VWS V13.01,2013-10-17 02:55:00,
2013-10-16 21:00:00,37.2,18.4,29.99,ESE,109,0.0,0.0,46,0.00,,CLR,0.00,VWS V13.01,2013-10-17 03:00:00,
2013-10-16 21:06:00,37.0,18.7,29.99,ESE,109,0.0,0.0,47,0.00,,CLR,0.00,VWS V13.01,2013-10-17 03:06:00,
2013-10-16 21:11:00,37.0,18.7,29.99,ESE,109,0.0,0.0,47,0.00,,CLR,0.00,VWS V13.01,2013-10-17 03:11:00,
2013-10-16 21:16:00,37.0,19.2,29.99,ESE,109,0.0,0.0,48,0.00,,CLR,0.00,VWS V13.01,2013-10-17 03:16:00,
2013-10-16 21:21:00,36.9,19.0,29.99,ESE,109,0.0,0.0,48,0.00,,CLR,0.00,VWS V13.01,2013-10-17 03:21:00,
2013-10-16 21:26:00,36.7,19.3,29.99,ESE,109,0.0,0.0,49,0.00,,CLR,0.00,VWS V13.01,2013-10-17 03:26:00,
2013-10-16 21:31:00,36.9,19.5,29.99,ESE,109,0.0,0.0,49,0.00,,CLR,0.00,VWS V13.01,2013-10-17 03:31:00,
2013-10-16 21:36:00,37.0,20.1,29.99,ESE,109,0.0,2.7,50,0.00,,CLR,0.00,VWS V13.01,2013-10-17 03:36:00,
2013-10-16 21:41:00,37.4,20.5,29.99,SSE,155,2.7,5.4,50,0.00,,CLR,0.00,VWS V13.01,2013-10-17 03:41:00,
2013-10-16 21:46:00,37.6,20.6,29.99,SSE,155,0.0,0.0,50,0.00,,CLR,0.00,VWS V13.01,2013-10-17 03:46:00,
2013-10-16 21:51:00,37.6,20.6,29.99,SSE,155,0.0,0.0,50,0.00,,CLR,0.00,VWS V13.01,2013-10-17 03:51:00,
2013-10-16 21:56:00,37.4,20.0,29.99,SSE,154,0.0,0.0,49,0.00,,CLR,0.00,VWS V13.01,2013-10-17 03:56:00,
2013-10-16 22:01:00,37.0,20.1,29.96,SSE,155,0.0,0.0,50,0.00,,CLR,0.00,VWS V13.01,2013-10-17 04:01:00,
2013-10-16 22:06:00,36.7,19.8,29.96,SSE,155,0.0,0.0,50,0.00,,CLR,0.00,VWS V13.01,2013-10-17 04:06:00,
2013-10-16 22:12:00,36.5,19.6,29.96,SSE,155,0.0,0.0,50,0.00,,CLR,0.00,VWS V13.01,2013-10-17 04:12:00,
2013-10-16 22:17:00,36.1,19.3,29.96,SSE,155,0.0,0.0,50,0.00,,CLR,0.00,VWS V13.01,2013-10-17 04:17:00,
2013-10-16 22:22:00,35.8,19.0,29.96,SSE,155,0.0,0.0,50,0.00,,CLR,0.00,VWS V13.01,2013-10-17 04:22:00,
2013-10-16 22:27:00,35.6,18.8,29.96,SSE,155,0.0,0.0,50,0.00,,CLR,0.00,VWS V13.01,2013-10-17 04:27:00,
2013-10-16 22:32:00,35.2,18.9,29.96,SSE,155,0.0,0.0,51,0.00,,CLR,0.00,VWS V13.01,2013-10-17 04:32:00,
2013-10-16 22:37:00,35.1,18.8,29.96,SSE,155,0.0,0.0,51,0.00,,CLR,0.00,VWS V13.01,2013-10-17 04:37:00,
2013-10-16 22:42:00,34.9,18.6,29.96,SSE,155,0.0,0.0,51,0.00,,CLR,0.00,VWS V13.01,2013-10-17 04:42:00,
2013-10-16 22:47:00,34.9,18.6,29.96,SSE,155,0.0,0.0,51,0.00,,CLR,0.00,VWS V13.01,2013-10-17 04:47:00,
2013-10-16 22:52:00,34.5,18.3,29.96,SSE,155,0.0,0.0,51,0.00,,CLR,0.00,VWS V13.01,2013-10-17 04:52:00,
2013-10-16 22:57:00,34.3,18.5,29.96,SSE,154,0.0,0.0,52,0.00,,CLR,0.00,VWS V13.01,2013-10-17 04:57:00,
2013-10-16 23:02:00,34.2,18.4,29.96,SSE,155,0.0,0.0,52,0.00,,CLR,0.00,VWS V13.01,2013-10-17 05:02:00,
2013-10-16 23:07:00,34.0,18.2,29.96,SSE,155,0.0,0.0,52,0.00,,CLR,0.00,VWS V13.01,2013-10-17 05:07:00,
2013-10-16 23:12:00,33.6,18.3,29.99,SSE,154,0.0,0.0,53,0.00,,CLR,0.00,VWS V13.01,2013-10-17 05:12:00,
2013-10-16 23:17:00,33.3,18.0,29.99,SSE,155,0.0,0.0,53,0.00,,CLR,0.00,VWS V13.01,2013-10-17 05:17:00,
2013-10-16 23:22:00,33.3,18.0,29.99,SSE,155,0.0,0.0,53,0.00,,CLR,0.00,VWS V13.01,2013-10-17 05:22:00,
2013-10-16 23:27:00,33.3,18.4,29.96,East,92,0.0,0.0,54,0.00,,CLR,0.00,VWS V13.01,2013-10-17 05:27:00,
2013-10-16 23:32:00,33.3,18.4,29.96,East,92,0.0,0.0,54,0.00,,CLR,0.00,VWS V13.01,2013-10-17 05:32:00,
2013-10-16 23:37:00,33.6,19.2,29.96,East,92,0.0,0.0,55,0.00,,CLR,0.00,VWS V13.01,2013-10-17 05:37:00,
2013-10-16 23:42:00,33.4,19.0,29.99,East,92,0.0,0.0,55,0.00,,CLR,0.00,VWS V13.01,2013-10-17 05:42:00,
2013-10-16 23:47:00,33.3,18.9,29.99,East,92,0.0,0.0,55,0.00,,CLR,0.00,VWS V13.01,2013-10-17 05:47:00,
2013-10-16 23:52:00,33.1,18.7,29.99,ESE,112,0.0,3.1,55,0.00,,CLR,0.00,VWS V13.01,2013-10-17 05:52:00,
2013-10-16 23:57:00,32.7,18.8,29.96,ESE,113,0.0,3.1,56,0.00,,CLR,0.00,VWS V13.01,2013-10-17 05:57:00,